Flag Weather past 2 weeks in Wake Island, Wake Island, U.S.A.

Now
81 °F

Clear.


Feels Like: 87 °F
Forecast: 80 / 85 °F
Wind: 7 mph from East

Location: Wake Island Airfld

Current Time: Nov 26, 2014 at 8:59:42 PM

Latest Report: Nov 26, 2014 at 7:58 PM


Visibility: N/A

Pressure: 29.96 "Hg

Humidity: 78%

Dew point: 74 °F

Location of Wake IslandLocation

Historic Weather in Wake Island — Graph

°F

Wake Island temperature yesterday

Maximum temperature yesterday: 85 °F (at 12:58 PM)
Minimum temperature yesterday: 77 °F (at 2:58 AM)
Average temperature yesterday: 81 °F

Past Weeks' High & Low Weather Summary

 TemperatureHumidityPressure
High87 °F (Nov 12, 1:58 PM)94% (Nov 11, 7:04 PM)30.06 "Hg (Nov 11, 7:04 PM)
Low77 °F (Nov 25, 2:58 AM)58% (Nov 17, 3:58 PM)29.90 "Hg (Nov 16, 3:58 PM)
Average82 °F77%29.97 "Hg
* Reported Nov 11 7:04 PM — Nov 26 7:58 PM, Wake Island, Weather by CustomWeather, © 2014

Note: Actual official high and low records may vary slightly from our data, if they occured in-between our weather recording intervals... More about our weather records

Advertising

Wake Island weather history for previous 24 hours

 ConditionsComfort  
Time TempWeatherWind HumidityBarometerVisibility
7:58 PM
Nov 26
81 °FClear.7 mph78%29.96 "HgN/A
6:58 PM82 °FScattered clouds.10 mph77%29.94 "HgN/A
5:58 PM83 °FPassing clouds.9 mph75%29.92 "HgN/A
4:58 PM84 °FSunny.13 mph72%29.92 "HgN/A
3:58 PM85 °FSunny.12 mph68%29.90 "HgN/A
2:58 PM85 °FSunny.12 mph68%29.90 "HgN/A
1:58 PM86 °FScattered clouds.10 mph68%29.91 "HgN/A
12:58 PM86 °FPassing clouds.9 mph69%29.93 "HgN/A
11:58 AM85 °FPartly sunny.12 mph74%29.95 "HgN/A
10:58 AM85 °FSunny.12 mph73%29.97 "HgN/A
8:58 AM83 °FSunny.9 mph76%29.96 "HgN/A
7:58 AM81 °FClear.8 mph79%29.95 "HgN/A
6:58 AM79 °FPassing clouds.9 mph84%29.95 "HgN/A
5:58 AM79 °FPassing clouds.10 mph86%29.93 "HgN/A
4:58 AM80 °FPassing clouds.12 mph88%29.92 "HgN/A
3:58 AM79 °FClear.10 mph86%29.92 "HgN/A
2:58 AM79 °FPartly cloudy.13 mph87%29.92 "HgN/A
2:03 AM81 °FPartly cloudy.13 mph84%29.91 "HgN/A
1:58 AM80 °FPassing clouds.13 mph82%29.93 "HgN/A
12:58 AM80 °FPassing clouds.13 mph80%29.94 "HgN/A
11:58 PM
Nov 25
80 °FClear.12 mph77%29.95 "HgN/A
10:58 PM80 °FPassing clouds.13 mph76%29.96 "HgN/A
9:58 PM80 °FPassing clouds.12 mph75%29.95 "HgN/A
8:58 PM80 °FClear.12 mph73%29.95 "HgN/A
Weather by CustomWeather, © 2014

See weather overviewHow to use our weather pages